Location: Lourdes
(43.1000°N, 0.0500°W)
Time: 05:51:16
(UTC+00:00)

CZ-2C R/B - Pass Details

Date: 30 November 2020
Orbit: 705 x 907 km, 98.1° (Epoch: 27 January)

Event Time Altitude Azimuth Distance (km) Brightness Sun altitude
Rises 17:38:54 0° 136° (SE) 3,234 6.0 -12.9°
Reaches altitude 10° 17:41:30 10° 125° (SE) 2,280 5.1 -13.4°
Maximum altitude 17:45:43 28° 67° (ENE) 1,351 3.7 -14.1°
Drops below altitude 10° 17:49:49 10° 9° (N) 2,214 5.1 -14.8°
Sets 17:52:18 0° 358° (N) 3,123 6.0 -15.3°
